Weather History for Glasgow, MT

Change the Weather History Date:

Wednesday, June 18, 2014

  Actual Average Record
Temperature  
Mean Temperature 60 °F 65 °F  
Max Temperature 68 °F 78 °F 98 °F (1986)
Min Temperature 52 °F 52 °F 33 °F (1949)
Degree Days  
Heating Degree Days 5 3  
Month to date heating degree days 96 81  
Since 1 June heating degree days 96 81  
Since 1 July heating degree days 8904 8412  
Cooling Degree Days 0 3  
Month to date cooling degree days 3 33  
Year to date cooling degree days 37 50  
Since 1 June cooling degree days 3 33  
Growing Degree Days 11 (Base 50)    
Moisture  
Dew Point 55 °F    
Average Humidity 74    
Maximum Humidity 100    
Minimum Humidity 48    
Precipitation  
Precipitation 1.03 in 0.07 in 1.57 in (1964)
Month to date precipitation 1.78 1.47  
Year to date precipitation 5.17 5.29  
Snow  
Snow 0.00 in 0.00 in 0.00 in (2002)
Month to date snowfall 0.0 0.0  
Since 1 June snowfall 0.0 0.0  
Since 1 July snowfall 30.4 34.8  
Snow Depth 0.00 in    
Sea Level Pressure  
Sea Level Pressure 29.78 in    
Wind  
Wind Speed 10 mph (ESE)    
Max Wind Speed 32 mph    
Max Gust Speed 38 mph    
Visibility 7 miles    
Events Rain , Thunderstorm    
T = Trace of Precipitation, MM = Missing Value Source: NWS Daily Summary

Daily Weather History Graph

Daily Weather History Graph

Search for Another Location

Airport:

Trip Planner

Search our weather history database for the weather conditions in past years. The results will help you decide how hot, cold, wet, or windy it might be!

Date:

Astronomy

Jun. 18, 2014 Rise Set
Actual Time 5:05 AM MDT 9:09 PM MDT
Civil Twilight 4:23 AM MDT 9:51 PM MDT
Nautical Twilight 3:25 AM MDT 10:49 PM MDT
Astronomical Twilight 1:40 AM MDT 12:35 AM MDT
Moon 12:14 AM MDT (6/18) 11:59 AM MDT (6/18)
Length of Visible Light 17h 27m
Length of Day
16h 04m
Waning Gibbous, 62% of the Moon is Illuminated
Jun 18
Waning Gibbous
Jun 19
Last Quarter
Jun 27
New
Jul 5
First Quarter
Jul 12
Full

Hourly Weather History & Observations

Time (MDT) Temp. Dew Point Humidity Pressure Visibility Wind Dir Wind Speed Gust Speed Precip Events Conditions
12:04 AM 61.0 °F 59.0 °F 93% 29.81 in 10.0 mi ESE 11.5 mph - N/A Thunderstorm Overcast
12:12 AM 61.0 °F 59.0 °F 93% 29.81 in 5.0 mi SE 12.7 mph - 0.01 in Rain , Thunderstorm Thunderstorms and Rain
12:21 AM 61.0 °F 60.1 °F 97% 29.78 in 2.5 mi ESE 8.1 mph - 0.11 in Rain , Thunderstorm Thunderstorms and Rain
12:24 AM 61.0 °F 60.1 °F 97% 29.80 in 4.0 mi East 11.5 mph - 0.11 in Rain , Thunderstorm Light Rain
12:35 AM 61.0 °F 60.1 °F 97% 29.81 in 6.0 mi ESE 11.5 mph - 0.12 in Rain , Thunderstorm Light Rain
12:46 AM 61.0 °F 60.1 °F 97% 29.81 in 4.0 mi East 12.7 mph - 0.14 in Rain , Thunderstorm Rain
12:49 AM 60.8 °F 60.8 °F 100% 29.80 in 4.0 mi East 12.7 mph - 0.15 in Rain Rain
12:53 AM 60.1 °F 60.1 °F 100% 29.78 in 4.0 mi ENE 11.5 mph - 0.16 in Rain Light Rain
1:53 AM 60.1 °F 59.0 °F 96% 29.78 in 5.0 mi ESE 8.1 mph - 0.09 in Rain Rain
2:00 AM 60.1 °F 59.0 °F 96% 29.78 in 6.0 mi SE 4.6 mph - 0.01 in Rain Light Rain
2:14 AM 60.1 °F 59.0 °F 96% 29.78 in 10.0 mi SE 12.7 mph - 0.02 in Rain Light Rain
2:38 AM 60.1 °F 59.0 °F 96% 29.75 in 9.0 mi ESE 10.4 mph - 0.04 in Rain Light Rain
2:53 AM 59.0 °F 59.0 °F 100% 29.73 in 10.0 mi ESE 6.9 mph - 0.04 in Rain Light Rain
3:25 AM 59.0 °F 57.0 °F 93% 29.76 in 10.0 mi ESE 4.6 mph - 0.03 in Rain , Thunderstorm Light Rain
3:37 AM 59.0 °F 57.0 °F 93% 29.72 in 5.0 mi NNW 6.9 mph - 0.04 in Rain , Thunderstorm Light Thunderstorms and Rain
3:53 AM 57.9 °F 57.9 °F 100% 29.73 in 2.0 mi NNE 6.9 mph - 0.16 in Rain , Thunderstorm Heavy Thunderstorms and Rain
4:06 AM 57.9 °F 57.9 °F 100% 29.69 in 4.0 mi North 16.1 mph - 0.06 in Rain , Thunderstorm Thunderstorms and Rain
4:19 AM 57.9 °F 57.9 °F 100% 29.71 in 2.5 mi North 12.7 mph 19.6 mph 0.15 in Rain , Thunderstorm Thunderstorms and Rain
4:32 AM 57.9 °F 57.9 °F 100% 29.70 in 1.8 mi West 4.6 mph - 0.24 in Rain , Thunderstorm Rain
4:35 AM 57.9 °F 57.9 °F 100% 29.71 in 2.0 mi Variable 5.8 mph - 0.26 in Rain , Thunderstorm Rain
4:40 AM 57.9 °F 57.9 °F 100% 29.70 in 1.8 mi Variable 5.8 mph - 0.29 in Rain , Thunderstorm Heavy Rain
4:47 AM 59.0 °F 57.2 °F 94% 29.70 in 3.0 mi ENE 10.4 mph - 0.32 in Rain , Thunderstorm Light Rain
4:53 AM 59.0 °F 57.9 °F 96% 29.68 in 2.5 mi NE 17.3 mph 25.3 mph 0.35 in Rain , Thunderstorm Heavy Rain
5:01 AM 59.0 °F 57.9 °F 96% 29.70 in 3.0 mi ENE 20.7 mph 31.1 mph 0.05 in Rain Light Rain
5:03 AM 59.0 °F 57.9 °F 96% 29.70 in 5.0 mi ENE 24.2 mph 32.2 mph 0.06 in Rain , Thunderstorm Light Thunderstorms and Rain
5:10 AM 59.0 °F 57.9 °F 96% 29.69 in 6.0 mi ENE 20.7 mph 32.2 mph 0.06 in Rain , Thunderstorm Light Thunderstorms and Rain
5:20 AM 59.0 °F 57.9 °F 96% 29.70 in 4.0 mi East 24.2 mph 35.7 mph 0.08 in Rain , Thunderstorm Light Thunderstorms and Rain
5:26 AM 59.0 °F 57.9 °F 96% 29.70 in 2.5 mi East 24.2 mph 31.1 mph 0.09 in Rain , Thunderstorm Thunderstorms and Rain
5:30 AM 59.0 °F 57.0 °F 93% 29.70 in 2.0 mi East 26.5 mph 33.4 mph 0.12 in Rain Heavy Rain
5:49 AM 57.2 °F 57.2 °F 100% 29.70 in 1.5 mi East 31.1 mph 38.0 mph 0.23 in Rain Heavy Rain
5:53 AM 57.9 °F 57.0 °F 97% 29.71 in 1.5 mi East 24.2 mph 36.8 mph 0.27 in Rain Heavy Rain
6:02 AM 57.9 °F 57.0 °F 97% 29.72 in 3.0 mi East 24.2 mph 32.2 mph 0.04 in Rain Light Rain
6:13 AM 59.0 °F 57.9 °F 96% 29.72 in 8.0 mi ESE 24.2 mph 32.2 mph 0.05 in Rain Light Rain
6:40 AM 59.0 °F 57.0 °F 93% 29.73 in 8.0 mi SE 25.3 mph - 0.06 in Rain Light Rain
6:53 AM 57.9 °F 57.0 °F 97% 29.72 in 8.0 mi SE 17.3 mph 26.5 mph 0.06 in   Overcast
7:14 AM 57.9 °F 57.0 °F 97% 29.73 in 10.0 mi East 9.2 mph - N/A   Overcast
7:22 AM 57.9 °F 57.0 °F 97% 29.74 in 10.0 mi East 10.4 mph - N/A   Overcast
7:53 AM 55.9 °F 54.0 °F 93% 29.75 in 9.0 mi SW 8.1 mph - N/A   Overcast
8:53 AM 54.0 °F 53.1 °F 97% 29.80 in 10.0 mi West 11.5 mph - 0.01 in   Overcast
9:10 AM 54.0 °F 52.0 °F 93% 29.80 in 10.0 mi West 11.5 mph - N/A   Overcast
9:17 AM 54.0 °F 52.0 °F 93% 29.80 in 10.0 mi West 11.5 mph - 0.00 in Rain Light Rain
9:31 AM 54.0 °F 52.0 °F 93% 29.79 in 10.0 mi WNW 9.2 mph - 0.00 in   Overcast
9:53 AM 54.0 °F 52.0 °F 93% 29.84 in 10.0 mi West 5.8 mph - 0.00 in   Overcast
10:09 AM 55.0 °F 52.0 °F 89% 29.82 in 10.0 mi West 11.5 mph - N/A   Overcast
10:50 AM 55.4 °F 51.8 °F 88% 29.85 in 10.0 mi WSW 5.8 mph - 0.00 in Rain Light Rain
10:53 AM 55.9 °F 51.1 °F 84% 29.85 in 10.0 mi WSW 8.1 mph - 0.00 in   Overcast
11:40 AM 59.0 °F 52.0 °F 78% 29.84 in 10.0 mi WSW 5.8 mph - 0.00 in Rain Light Rain
11:48 AM 57.2 °F 51.8 °F 82% 29.84 in 10.0 mi Variable 3.5 mph - 0.00 in Rain Light Rain
11:53 AM 57.9 °F 52.0 °F 81% 29.85 in 10.0 mi Variable 4.6 mph - 0.00 in Rain Light Rain
12:53 PM 59.0 °F 50.0 °F 72% 29.83 in 10.0 mi SW 5.8 mph - 0.00 in   Overcast
1:02 PM 60.1 °F 51.1 °F 72% 29.84 in 10.0 mi WSW 9.2 mph - N/A   Overcast
1:44 PM 59.0 °F 51.1 °F 75% 29.84 in 10.0 mi SW 6.9 mph - 0.00 in   Overcast
1:53 PM 60.1 °F 51.1 °F 72% 29.84 in 10.0 mi SSW 6.9 mph - 0.00 in   Overcast
2:53 PM 64.0 °F 51.1 °F 63% 29.83 in 10.0 mi SW 10.4 mph - N/A   Overcast
3:53 PM 66.0 °F 48.0 °F 52% 29.83 in 10.0 mi SSW 11.5 mph - N/A   Mostly Cloudy
4:53 PM 66.9 °F 46.0 °F 47% 29.84 in 10.0 mi SSE 8.1 mph - N/A   Partly Cloudy
5:53 PM 66.9 °F 46.0 °F 47% 29.83 in 10.0 mi South 4.6 mph - N/A   Partly Cloudy
6:53 PM 66.9 °F 46.0 °F 47% 29.82 in 10.0 mi SE 5.8 mph - N/A   Clear
7:53 PM 63.0 °F 50.0 °F 63% 29.83 in 10.0 mi ESE 6.9 mph - N/A   Clear
8:53 PM 59.0 °F 50.0 °F 72% 29.83 in 10.0 mi ESE 9.2 mph - N/A   Clear
9:53 PM 57.0 °F 53.1 °F 87% 29.84 in 10.0 mi ESE 11.5 mph - N/A   Clear
10:53 PM 55.9 °F 54.0 °F 93% 29.83 in 10.0 mi East 10.4 mph - N/A   Mostly Cloudy
11:53 PM 55.9 °F 53.1 °F 90% 29.84 in 10.0 mi SE 9.2 mph - N/A   Clear